Time,TemperatureF,DewpointF,PressureIn,WindDirection,WindDirectionDegrees,WindSpeedMPH,WindSpeedGustMPH,Humidity,HourlyPrecipIn,Conditions,Clouds,dailyrainin,SoftwareType,DateUTC
2013-07-05 00:00:00,73.3,71.5,30.16,SE,127,0.0,15.0,94,0.00,,,0.00,Wunderground v.1.15,2013-07-05 04:00:00,
2013-07-05 00:05:00,73.3,71.5,30.17,SE,127,0.0,15.0,94,0.00,,,0.00,Wunderground v.1.15,2013-07-05 04:05:00,
2013-07-05 00:11:00,73.3,71.5,30.17,SE,127,0.0,15.0,94,0.00,,,0.00,Wunderground v.1.15,2013-07-05 04:11:00,
2013-07-05 00:15:00,73.3,71.5,30.17,SE,127,0.0,15.0,94,0.00,,,0.00,Wunderground v.1.15,2013-07-05 04:15:00,
2013-07-05 00:21:00,73.3,71.5,30.17,SE,124,0.0,15.0,94,0.00,,,0.00,Wunderground v.1.15,2013-07-05 04:21:00,
2013-07-05 00:30:00,73.5,71.4,30.17,ESE,120,0.0,15.0,93,0.00,,,0.00,Wunderground v.1.15,2013-07-05 04:30:00,
2013-07-05 00:36:00,73.6,71.4,30.17,SE,130,0.0,15.0,93,0.00,,,0.00,Wunderground v.1.15,2013-07-05 04:36:00,
2013-07-05 00:46:00,74.0,71.5,30.17,ESE,120,0.0,15.0,92,0.00,,,0.00,Wunderground v.1.15,2013-07-05 04:46:00,
2013-07-05 00:56:00,74.3,71.5,30.17,ESE,117,1.0,15.0,91,0.00,,,0.00,Wunderground v.1.15,2013-07-05 04:56:00,
2013-07-05 01:00:00,74.4,71.6,30.17,ESE,107,1.0,15.0,91,0.00,,,0.00,Wunderground v.1.15,2013-07-05 05:00:00,
2013-07-05 01:06:00,74.6,71.8,30.16,SE,132,0.0,15.0,91,0.00,,,0.00,Wunderground v.1.15,2013-07-05 05:06:00,
2013-07-05 01:11:00,74.6,71.8,30.16,ESE,110,0.0,15.0,91,0.00,,,0.00,Wunderground v.1.15,2013-07-05 05:11:00,
2013-07-05 01:20:00,74.7,71.9,30.16,SE,132,0.0,15.0,91,0.00,,,0.00,Wunderground v.1.15,2013-07-05 05:20:00,
2013-07-05 01:25:00,74.8,72.0,30.16,SE,127,0.0,15.0,91,0.00,,,0.00,Wunderground v.1.15,2013-07-05 05:25:00,
2013-07-05 01:36:00,74.6,71.8,30.16,ESE,122,0.0,15.0,91,0.00,,,0.00,Wunderground v.1.15,2013-07-05 05:36:00,
2013-07-05 01:46:00,74.5,71.7,30.15,ESE,109,0.0,15.0,91,0.00,,,0.00,Wunderground v.1.15,2013-07-05 05:46:00,
2013-07-05 01:56:00,74.5,71.7,30.16,ESE,105,0.0,15.0,91,0.00,,,0.00,Wunderground v.1.15,2013-07-05 05:56:00,
2013-07-05 02:05:00,74.4,71.6,30.16,ESE,121,0.0,15.0,91,0.00,,,0.00,Wunderground v.1.15,2013-07-05 06:05:00,
2013-07-05 02:11:00,74.4,71.6,30.16,ESE,110,0.0,15.0,91,0.00,,,0.00,Wunderground v.1.15,2013-07-05 06:11:00,
2013-07-05 02:20:00,74.3,71.8,30.16,ESE,110,0.0,15.0,92,0.00,,,0.00,Wunderground v.1.15,2013-07-05 06:20:00,
2013-07-05 02:25:00,74.2,71.7,30.16,ESE,111,0.0,15.0,92,0.00,,,0.00,Wunderground v.1.15,2013-07-05 06:25:00,
2013-07-05 02:35:00,74.1,71.6,30.16,ESE,108,0.0,15.0,92,0.00,,,0.00,Wunderground v.1.15,2013-07-05 06:35:00,
2013-07-05 02:45:00,74.0,71.5,30.16,ESE,108,0.0,15.0,92,0.00,,,0.00,Wunderground v.1.15,2013-07-05 06:45:00,
2013-07-05 02:51:00,73.9,71.4,30.16,ESE,107,0.0,15.0,92,0.00,,,0.00,Wunderground v.1.15,2013-07-05 06:51:00,
2013-07-05 03:01:00,73.8,71.3,30.16,ESE,107,0.0,15.0,92,0.00,,,0.00,Wunderground v.1.15,2013-07-05 07:01:00,
2013-07-05 03:11:00,73.7,71.2,30.16,ESE,110,0.0,15.0,92,0.00,,,0.00,Wunderground v.1.15,2013-07-05 07:11:00,
2013-07-05 03:21:00,73.5,71.4,30.16,ESE,110,0.0,15.0,93,0.00,,,0.00,Wunderground v.1.15,2013-07-05 07:21:00,
2013-07-05 03:31:00,73.3,71.2,30.16,ESE,110,0.0,15.0,93,0.00,,,0.00,Wunderground v.1.15,2013-07-05 07:31:00,
2013-07-05 03:41:00,73.0,71.2,30.16,ESE,110,0.0,15.0,94,0.00,,,0.00,Wunderground v.1.15,2013-07-05 07:41:00,
2013-07-05 03:46:00,72.9,71.1,30.16,ESE,110,0.0,15.0,94,0.00,,,0.00,Wunderground v.1.15,2013-07-05 07:46:00,
2013-07-05 03:56:00,72.7,71.2,30.16,ESE,110,0.0,15.0,95,0.00,,,0.00,Wunderground v.1.15,2013-07-05 07:56:00,
2013-07-05 04:06:00,72.5,71.0,30.16,ESE,110,0.0,15.0,95,0.00,,,0.00,Wunderground v.1.15,2013-07-05 08:06:00,
2013-07-05 04:11:00,72.4,70.9,30.16,ESE,110,0.0,15.0,95,0.00,,,0.00,Wunderground v.1.15,2013-07-05 08:11:00,
2013-07-05 04:20:00,72.2,70.7,30.16,ESE,110,0.0,15.0,95,0.00,,,0.00,Wunderground v.1.15,2013-07-05 08:20:00,
2013-07-05 04:26:00,72.0,70.5,30.16,ESE,110,0.0,15.0,95,0.00,,,0.00,Wunderground v.1.15,2013-07-05 08:26:00,
2013-07-05 04:36:00,71.9,70.7,30.16,ESE,110,0.0,15.0,96,0.00,,,0.00,Wunderground v.1.15,2013-07-05 08:36:00,
2013-07-05 04:46:00,71.7,70.5,30.16,ESE,110,0.0,15.0,96,0.00,,,0.00,Wunderground v.1.15,2013-07-05 08:46:00,
2013-07-05 04:55:00,71.5,70.3,30.17,ESE,110,0.0,15.0,96,0.00,,,0.00,Wunderground v.1.15,2013-07-05 08:55:00,
2013-07-05 05:05:00,71.3,70.1,30.17,ESE,110,0.0,15.0,96,0.00,,,0.00,Wunderground v.1.15,2013-07-05 09:05:00,
2013-07-05 05:16:00,71.2,70.3,30.17,ESE,110,0.0,15.0,97,0.00,,,0.00,Wunderground v.1.15,2013-07-05 09:16:00,
2013-07-05 05:30:00,71.1,70.2,30.17,ESE,110,0.0,15.0,97,0.00,,,0.00,Wunderground v.1.15,2013-07-05 09:30:00,
2013-07-05 05:40:00,71.0,70.1,30.17,ESE,110,0.0,15.0,97,0.00,,,0.00,Wunderground v.1.15,2013-07-05 09:40:00,
2013-07-05 05:50:00,71.0,70.1,30.18,ESE,110,0.0,15.0,97,0.00,,,0.00,Wunderground v.1.15,2013-07-05 09:50:00,
2013-07-05 06:00:00,71.1,70.2,30.18,ESE,110,0.0,15.0,97,0.00,,,0.00,Wunderground v.1.15,2013-07-05 10:00:00,
2013-07-05 06:11:00,71.4,70.8,30.18,ESE,110,0.0,15.0,98,0.00,,,0.00,Wunderground v.1.15,2013-07-05 10:11:00,
2013-07-05 06:20:00,72.2,71.3,30.18,ESE,110,0.0,15.0,97,0.00,,,0.00,Wunderground v.1.15,2013-07-05 10:20:00,
2013-07-05 06:30:00,73.1,72.2,30.18,ESE,110,0.0,15.0,97,0.00,,,0.00,Wunderground v.1.15,2013-07-05 10:30:00,
2013-07-05 06:36:00,73.6,72.4,30.18,ESE,102,0.0,15.0,96,0.00,,,0.00,Wunderground v.1.15,2013-07-05 10:36:00,
2013-07-05 06:46:00,74.3,72.5,30.18,ESE,102,0.0,15.0,94,0.00,,,0.00,Wunderground v.1.15,2013-07-05 10:46:00,
2013-07-05 06:56:00,74.9,72.7,30.18,ESE,123,0.0,15.0,93,0.00,,,0.00,Wunderground v.1.15,2013-07-05 10:56:00,
2013-07-05 07:06:00,75.5,73.0,30.18,East,99,0.0,15.0,92,0.00,,,0.00,Wunderground v.1.15,2013-07-05 11:06:00,
2013-07-05 07:16:00,76.3,73.1,30.17,SW,224,0.0,15.0,90,0.00,,,0.00,Wunderground v.1.15,2013-07-05 11:16:00,
2013-07-05 07:26:00,76.8,73.3,30.18,ESE,103,0.0,15.0,89,0.00,,,0.00,Wunderground v.1.15,2013-07-05 11:26:00,
2013-07-05 07:36:00,77.2,73.4,30.18,ESE,117,0.0,15.0,88,0.00,,,0.00,Wunderground v.1.15,2013-07-05 11:36:00,
2013-07-05 07:46:00,77.8,73.6,30.18,SSW,201,0.0,15.0,87,0.00,,,0.00,Wunderground v.1.15,2013-07-05 11:46:00,
2013-07-05 08:01:00,79.7,74.1,30.18,SW,236,0.0,15.0,83,0.00,,,0.00,Wunderground v.1.15,2013-07-05 12:01:00,
2013-07-05 08:11:00,80.0,74.0,30.18,NNE,12,0.0,15.0,82,0.00,,,0.00,Wunderground v.1.15,2013-07-05 12:11:00,
2013-07-05 08:25:00,80.4,74.4,30.18,NNW,345,0.0,15.0,82,0.00,,,0.00,Wunderground v.1.15,2013-07-05 12:25:00,
2013-07-05 08:31:00,80.8,74.8,30.18,South,169,0.0,15.0,82,0.00,,,0.00,Wunderground v.1.15,2013-07-05 12:31:00,
2013-07-05 08:41:00,82.1,74.6,30.18,West,260,0.0,15.0,78,0.00,,,0.00,Wunderground v.1.15,2013-07-05 12:41:00,
2013-07-05 08:51:00,82.0,74.8,30.18,WNW,295,1.0,15.0,79,0.00,,,0.00,Wunderground v.1.15,2013-07-05 12:51:00,
2013-07-05 09:00:00,82.1,75.3,30.17,North,4,0.0,15.0,80,0.00,,,0.00,Wunderground v.1.15,2013-07-05 13:00:00,
2013-07-05 09:11:00,83.2,75.2,30.17,WNW,298,0.0,15.0,77,0.00,,,0.00,Wunderground v.1.15,2013-07-05 13:11:00,
2013-07-05 09:20:00,83.4,75.0,30.17,SSW,212,1.0,1.0,76,0.00,,,0.00,Wunderground v.1.15,2013-07-05 13:20:00,
2013-07-05 09:30:00,84.0,75.2,30.17,South,174,0.0,15.0,75,0.00,,,0.00,Wunderground v.1.15,2013-07-05 13:30:00,
2013-07-05 09:40:00,85.0,75.4,30.16,ENE,63,1.0,15.0,73,0.00,,,0.00,Wunderground v.1.15,2013-07-05 13:40:00,
2013-07-05 09:51:00,85.6,75.1,30.16,SW,236,1.0,15.0,71,0.00,,,0.00,Wunderground v.1.15,2013-07-05 13:51:00,
2013-07-05 10:01:00,85.7,75.6,30.16,SE,131,1.0,15.0,72,0.00,,,0.00,Wunderground v.1.15,2013-07-05 14:01:00,
2013-07-05 10:15:00,86.6,76.1,30.16,SE,124,1.0,15.0,71,0.00,,,0.00,Wunderground v.1.15,2013-07-05 14:15:00,
2013-07-05 10:21:00,86.7,76.2,30.16,NNE,24,1.0,1.0,71,0.00,,,0.00,Wunderground v.1.15,2013-07-05 14:21:00,
2013-07-05 10:31:00,86.7,75.7,30.16,ESE,118,1.0,15.0,70,0.00,,,0.00,Wunderground v.1.15,2013-07-05 14:31:00,
2013-07-05 10:40:00,87.2,75.8,30.16,NNE,18,1.0,1.0,69,0.00,,,0.00,Wunderground v.1.15,2013-07-05 14:40:00,
2013-07-05 10:50:00,87.2,75.3,30.16,WNW,290,2.0,2.0,68,0.00,,,0.00,Wunderground v.1.15,2013-07-05 14:50:00,
2013-07-05 10:56:00,87.4,76.0,30.16,SW,236,2.0,15.0,69,0.00,,,0.00,Wunderground v.1.15,2013-07-05 14:56:00,
2013-07-05 11:11:00,88.2,76.3,30.15,SW,221,1.0,1.0,68,0.00,,,0.00,Wunderground v.1.15,2013-07-05 15:11:00,
2013-07-05 11:20:00,89.2,75.9,30.15,East,91,1.0,1.0,65,0.00,,,0.00,Wunderground v.1.15,2013-07-05 15:20:00,
2013-07-05 11:30:00,89.1,75.8,30.15,WNW,295,1.0,15.0,65,0.00,,,0.00,Wunderground v.1.15,2013-07-05 15:30:00,
2013-07-05 11:36:00,89.3,75.5,30.15,WNW,290,1.0,15.0,64,0.00,,,0.00,Wunderground v.1.15,2013-07-05 15:36:00,
2013-07-05 11:46:00,90.0,75.2,30.15,SSE,162,1.0,15.0,62,0.00,,,0.00,Wunderground v.1.15,2013-07-05 15:46:00,
2013-07-05 11:50:00,90.0,75.7,30.15,North,1,1.0,1.0,63,0.00,,,0.00,Wunderground v.1.15,2013-07-05 15:50:00,
2013-07-05 11:56:00,90.0,75.7,30.15,WSW,242,1.0,15.0,63,0.00,,,0.00,Wunderground v.1.15,2013-07-05 15:56:00,
2013-07-05 12:06:00,90.1,75.8,30.14,SSW,210,1.0,15.0,63,0.00,,,0.00,Wunderground v.1.15,2013-07-05 16:06:00,
2013-07-05 12:11:00,91.0,77.6,30.14,NE,36,1.0,15.0,65,0.00,,,0.00,Wunderground v.1.15,2013-07-05 16:11:00,
2013-07-05 12:20:00,90.5,75.2,30.14,NW,326,1.0,15.0,61,0.00,,,0.00,Wunderground v.1.15,2013-07-05 16:20:00,
2013-07-05 12:26:00,90.4,75.6,30.14,WNW,283,1.0,15.0,62,0.00,,,0.00,Wunderground v.1.15,2013-07-05 16:26:00,
2013-07-05 12:36:00,90.6,75.8,30.14,SSW,212,1.0,15.0,62,0.00,,,0.00,Wunderground v.1.15,2013-07-05 16:36:00,
2013-07-05 12:45:00,90.7,75.4,30.13,WSW,249,1.0,15.0,61,0.00,,,0.00,Wunderground v.1.15,2013-07-05 16:45:00,
2013-07-05 12:50:00,90.7,74.4,30.13,WNW,300,1.0,15.0,59,0.00,,,0.00,Wunderground v.1.15,2013-07-05 16:50:00,
2013-07-05 13:00:00,89.9,76.6,30.13,WNW,289,1.0,1.0,65,0.00,,,0.00,Wunderground v.1.15,2013-07-05 17:00:00,
2013-07-05 13:06:00,90.2,77.8,30.13,South,186,0.0,15.0,67,0.00,,,0.00,Wunderground v.1.15,2013-07-05 17:06:00,
2013-07-05 13:11:00,90.2,77.8,30.13,NNW,345,0.0,15.0,67,0.00,,,0.00,Wunderground v.1.15,2013-07-05 17:11:00,
2013-07-05 13:20:00,89.6,77.2,30.13,SSW,207,1.0,15.0,67,0.00,,,0.00,Wunderground v.1.15,2013-07-05 17:20:00,
2013-07-05 13:26:00,89.5,76.6,30.13,SE,134,2.0,15.0,66,0.00,,,0.00,Wunderground v.1.15,2013-07-05 17:26:00,
2013-07-05 13:36:00,89.8,76.9,30.13,ENE,65,1.0,15.0,66,0.00,,,0.00,Wunderground v.1.15,2013-07-05 17:36:00,
2013-07-05 13:45:00,90.2,76.8,30.13,SSE,167,1.0,15.0,65,0.00,,,0.00,Wunderground v.1.15,2013-07-05 17:45:00,
2013-07-05 13:51:00,90.2,76.4,30.12,ESE,117,1.0,15.0,64,0.00,,,0.00,Wunderground v.1.15,2013-07-05 17:51:00,
2013-07-05 14:01:00,90.0,76.6,30.12,SSW,201,1.0,1.0,65,0.00,,,0.00,Wunderground v.1.15,2013-07-05 18:01:00,
2013-07-05 14:11:00,89.7,76.8,30.12,SSE,152,1.0,15.0,66,0.00,,,0.00,Wunderground v.1.15,2013-07-05 18:11:00,
2013-07-05 14:21:00,89.0,77.5,30.12,SE,144,1.0,15.0,69,0.00,,,0.00,Wunderground v.1.15,2013-07-05 18:21:00,
2013-07-05 14:31:00,88.7,76.8,30.12,SSE,152,1.0,15.0,68,0.00,,,0.00,Wunderground v.1.15,2013-07-05 18:31:00,
2013-07-05 14:41:00,88.6,77.1,30.12,SSE,165,1.0,15.0,69,0.00,,,0.00,Wunderground v.1.15,2013-07-05 18:41:00,
2013-07-05 14:51:00,88.0,76.5,30.12,ENE,75,2.0,2.0,69,0.00,,,0.00,Wunderground v.1.15,2013-07-05 18:51:00,
2013-07-05 15:01:00,87.8,75.0,30.11,ESE,116,1.0,15.0,66,0.00,,,0.00,Wunderground v.1.15,2013-07-05 19:01:00,
2013-07-05 15:11:00,87.9,74.7,30.11,SE,143,1.0,1.0,65,0.00,,,0.00,Wunderground v.1.15,2013-07-05 19:11:00,
2013-07-05 15:20:00,87.7,74.5,30.11,East,101,1.0,1.0,65,0.00,,,0.00,Wunderground v.1.15,2013-07-05 19:20:00,
2013-07-05 15:30:00,87.7,73.1,30.10,NNW,332,1.0,1.0,62,0.00,,,0.00,Wunderground v.1.15,2013-07-05 19:30:00,
2013-07-05 15:40:00,87.5,73.3,30.10,South,170,1.0,1.0,63,0.00,,,0.00,Wunderground v.1.15,2013-07-05 19:40:00,
2013-07-05 15:46:00,87.5,73.8,30.10,SSW,193,1.0,15.0,64,0.00,,,0.00,Wunderground v.1.15,2013-07-05 19:46:00,
2013-07-05 15:56:00,87.2,74.0,30.09,SSE,160,1.0,15.0,65,0.00,,,0.00,Wunderground v.1.15,2013-07-05 19:56:00,
2013-07-05 16:06:00,86.6,74.8,30.09,SE,142,1.0,15.0,68,0.00,,,0.00,Wunderground v.1.15,2013-07-05 20:06:00,
2013-07-05 16:11:00,86.4,75.0,30.09,SSE,162,1.0,1.0,69,0.00,,,0.00,Wunderground v.1.15,2013-07-05 20:11:00,
2013-07-05 16:20:00,86.3,74.9,30.09,ESE,114,1.0,15.0,69,0.00,,,0.00,Wunderground v.1.15,2013-07-05 20:20:00,
2013-07-05 16:26:00,86.2,74.8,30.09,South,169,2.0,15.0,69,0.00,,,0.00,Wunderground v.1.15,2013-07-05 20:26:00,
2013-07-05 16:36:00,86.4,76.3,30.08,SSW,198,1.0,15.0,72,0.00,,,0.00,Wunderground v.1.15,2013-07-05 20:36:00,
2013-07-05 16:45:00,86.0,75.5,30.08,East,96,1.0,15.0,71,0.00,,,0.00,Wunderground v.1.15,2013-07-05 20:45:00,
2013-07-05 16:55:00,85.9,75.8,30.08,SSW,194,1.0,15.0,72,0.00,,,0.00,Wunderground v.1.15,2013-07-05 20:55:00,
2013-07-05 17:05:00,85.6,75.1,30.08,SSE,166,1.0,15.0,71,0.00,,,0.00,Wunderground v.1.15,2013-07-05 21:05:00,
2013-07-05 17:11:00,85.6,75.5,30.08,South,169,1.0,1.0,72,0.00,,,0.00,Wunderground v.1.15,2013-07-05 21:11:00,
2013-07-05 17:21:00,85.3,75.2,30.08,SW,236,1.0,1.0,72,0.00,,,0.00,Wunderground v.1.15,2013-07-05 21:21:00,
2013-07-05 17:31:00,85.2,76.0,30.08,WNW,285,1.0,1.0,74,0.00,,,0.00,Wunderground v.1.15,2013-07-05 21:31:00,
2013-07-05 17:41:00,85.0,75.8,30.08,ESE,108,0.0,15.0,74,0.00,,,0.00,Wunderground v.1.15,2013-07-05 21:41:00,
2013-07-05 17:51:00,84.7,75.5,30.08,SE,138,0.0,15.0,74,0.00,,,0.00,Wunderground v.1.15,2013-07-05 21:51:00,
2013-07-05 17:56:00,84.4,76.0,30.08,SE,146,0.0,15.0,76,0.00,,,0.00,Wunderground v.1.15,2013-07-05 21:56:00,
2013-07-05 18:06:00,84.1,75.7,30.08,SE,141,0.0,15.0,76,0.00,,,0.00,Wunderground v.1.15,2013-07-05 22:06:00,
2013-07-05 18:11:00,83.7,75.3,30.08,ESE,112,1.0,1.0,76,0.00,,,0.00,Wunderground v.1.15,2013-07-05 22:11:00,
2013-07-05 18:20:00,83.4,75.4,30.08,East,79,0.0,15.0,77,0.00,,,0.00,Wunderground v.1.15,2013-07-05 22:20:00,
2013-07-05 18:26:00,83.2,75.6,30.07,ESE,112,0.0,15.0,78,0.00,,,0.00,Wunderground v.1.15,2013-07-05 22:26:00,
2013-07-05 18:35:00,82.8,75.6,30.07,ESE,114,1.0,15.0,79,0.00,,,0.00,Wunderground v.1.15,2013-07-05 22:35:00,
2013-07-05 18:41:00,82.7,75.5,30.07,SE,124,0.0,15.0,79,0.00,,,0.00,Wunderground v.1.15,2013-07-05 22:41:00,
2013-07-05 18:51:00,82.4,75.6,30.07,East,96,1.0,15.0,80,0.00,,,0.00,Wunderground v.1.15,2013-07-05 22:51:00,
2013-07-05 19:00:00,82.0,74.8,30.07,SW,224,0.0,15.0,79,0.00,,,0.00,Wunderground v.1.15,2013-07-05 23:00:00,
2013-07-05 19:05:00,81.8,75.0,30.07,SE,124,0.0,15.0,80,0.00,,,0.00,Wunderground v.1.15,2013-07-05 23:05:00,
2013-07-05 19:11:00,81.6,74.8,30.07,East,92,0.0,15.0,80,0.00,,,0.00,Wunderground v.1.15,2013-07-05 23:11:00,
2013-07-05 19:21:00,81.2,74.8,30.07,SSE,149,0.0,15.0,81,0.00,,,0.00,Wunderground v.1.15,2013-07-05 23:21:00,
2013-07-05 19:30:00,80.8,74.4,30.07,SE,140,0.0,15.0,81,0.00,,,0.00,Wunderground v.1.15,2013-07-05 23:30:00,
2013-07-05 19:35:00,80.6,74.2,30.07,East,97,0.0,15.0,81,0.00,,,0.00,Wunderground v.1.15,2013-07-05 23:35:00,
2013-07-05 19:45:00,80.2,74.2,30.07,East,93,0.0,15.0,82,0.00,,,0.00,Wunderground v.1.15,2013-07-05 23:45:00,
2013-07-05 19:56:00,79.7,73.7,30.07,East,91,0.0,15.0,82,0.00,,,0.00,Wunderground v.1.15,2013-07-05 23:56:00,
2013-07-05 20:05:00,79.4,73.8,30.07,East,81,0.0,15.0,83,0.00,,,0.00,Wunderground v.1.15,2013-07-06 00:05:00,
2013-07-05 20:11:00,79.2,73.6,30.07,SSE,166,0.0,15.0,83,0.00,,,0.00,Wunderground v.1.15,2013-07-06 00:11:00,
2013-07-05 20:20:00,78.9,73.7,30.07,SSE,167,0.0,15.0,84,0.00,,,0.00,Wunderground v.1.15,2013-07-06 00:20:00,
2013-07-05 20:26:00,78.6,73.4,30.07,SSE,166,0.0,15.0,84,0.00,,,0.00,Wunderground v.1.15,2013-07-06 00:26:00,
2013-07-05 20:36:00,78.2,73.3,30.07,SSE,167,0.0,15.0,85,0.00,,,0.00,Wunderground v.1.15,2013-07-06 00:36:00,
2013-07-05 20:45:00,77.8,73.3,30.07,SSE,166,0.0,15.0,86,0.00,,,0.00,Wunderground v.1.15,2013-07-06 00:45:00,
2013-07-05 20:51:00,77.6,73.4,30.07,SSE,167,0.0,15.0,87,0.00,,,0.00,Wunderground v.1.15,2013-07-06 00:51:00,
2013-07-05 21:01:00,77.2,73.0,30.07,SSE,166,0.0,15.0,87,0.00,,,0.00,Wunderground v.1.15,2013-07-06 01:01:00,
2013-07-05 21:11:00,76.7,72.9,30.08,SSE,167,0.0,15.0,88,0.00,,,0.00,Wunderground v.1.15,2013-07-06 01:11:00,
2013-07-05 21:21:00,76.3,72.8,30.08,SSE,167,0.0,15.0,89,0.00,,,0.00,Wunderground v.1.15,2013-07-06 01:21:00,
2013-07-05 21:31:00,75.9,72.8,30.08,SSE,166,0.0,15.0,90,0.00,,,0.00,Wunderground v.1.15,2013-07-06 01:31:00,
2013-07-05 21:41:00,75.6,72.8,30.08,SSE,167,0.0,15.0,91,0.00,,,0.00,Wunderground v.1.15,2013-07-06 01:41:00,
2013-07-05 21:51:00,75.3,72.5,30.08,SSE,160,0.0,15.0,91,0.00,,,0.00,Wunderground v.1.15,2013-07-06 01:51:00,
2013-07-05 22:01:00,74.9,72.4,30.08,SSE,161,0.0,15.0,92,0.00,,,0.00,Wunderground v.1.15,2013-07-06 02:01:00,
2013-07-05 22:11:00,74.6,72.4,30.09,SSE,160,0.0,15.0,93,0.00,,,0.00,Wunderground v.1.15,2013-07-06 02:11:00,
2013-07-05 22:21:00,74.4,72.2,30.08,SE,137,0.0,15.0,93,0.00,,,0.00,Wunderground v.1.15,2013-07-06 02:21:00,
2013-07-05 22:31:00,74.3,72.1,30.08,SE,136,0.0,15.0,93,0.00,,,0.00,Wunderground v.1.15,2013-07-06 02:31:00,
2013-07-05 22:41:00,74.2,72.0,30.08,SE,136,0.0,15.0,93,0.00,,,0.00,Wunderground v.1.15,2013-07-06 02:41:00,
2013-07-05 22:51:00,74.0,71.8,30.08,SE,137,0.0,15.0,93,0.00,,,0.00,Wunderground v.1.15,2013-07-06 02:51:00,
2013-07-05 23:01:00,73.9,72.1,30.08,SE,136,0.0,15.0,94,0.00,,,0.00,Wunderground v.1.15,2013-07-06 03:01:00,
2013-07-05 23:11:00,73.8,72.0,30.09,SE,136,0.0,15.0,94,0.00,,,0.00,Wunderground v.1.15,2013-07-06 03:11:00,
2013-07-05 23:21:00,73.7,71.9,30.09,SE,135,0.0,15.0,94,0.00,,,0.00,Wunderground v.1.15,2013-07-06 03:21:00,
2013-07-05 23:31:00,73.7,71.9,30.09,SE,135,0.0,15.0,94,0.00,,,0.00,Wunderground v.1.15,2013-07-06 03:31:00,
2013-07-05 23:41:00,73.7,71.9,30.09,SE,135,0.0,15.0,94,0.00,,,0.00,Wunderground v.1.15,2013-07-06 03:41:00,
2013-07-05 23:51:00,73.6,71.8,30.09,SE,135,0.0,15.0,94,0.00,,,0.00,Wunderground v.1.15,2013-07-06 03:51:00,